Dewpoint
44 44 47 47 47 45 44 44 44 46 46 45 45 45 46 46 46 47 48 49 49 47 47 47 48 49 46 33 30 33 37 48 51 42 37 35 28 21 22 23 26 24 22 19 17 16 16
46 46 43 44 45 45 47 45 45 45 45 45 45 45 45 45 46 46 47 48 47 47 47 47 48 49 44 27 24 23 23 25 22 16 19 29 31 27 26 26 23 24 23 20 19 15 13
44 45 46 45 45 44 44 46 46 44 44 43 44 44 44 45 45 45 47 47 46 46 47 46 48 47 42 30 25 25 28 26 26 27 17 14 13 16 27 27 25 24 22 21 19 17 14
43 44 44 44 46 46 45 44 44 45 43 41 42 44 44 45 46 47 46 45 45 45 45 46 50 47 38 37 36 34 30 27 27 29 28 19 15 13 25 29 28 26 22 18 19 18 17
42 42 42 43 43 44 45 44 43 45 42 41 43 44 43 45 47 46 46 45 44 43 46 48 47 45 39 36 34 33 31 26 26 26 25 20 20 15 26 28 26 24 20 20 18 18 16
42 42 41 42 41 43 44 44 44 45 44 43 43 43 44 45 46 46 45 44 40 44 44 44 43 42 42 31 22 21 23 33 33 28 26 23 21 14 27 27 23 23 22 20 17 17 16
44 44 42 41 43 42 41 42 44 44 44 42 42 42 44 45 45 45 43 37 32 34 32 34 36 38 36 30 24 17 18 29 33 32 28 27 16 14 16 26 27 26 24 23 21 18 18
42 42 42 43 42 42 41 40 42 44 44 43 42 43 44 45 45 44 41 37 34 34 32 34 33 31 30 27 22 23 20 23 28 29 31 29 19 21 22 25 25 25 23 21 22 23 22
40 41 42 43 43 43 42 41 42 44 44 43 43 43 43 45 44 41 37 38 39 37 33 29 28 28 28 28 25 24 23 18 28 28 29 28 30 32 31 21 24 23 22 21 21 22 24
42 42 43 43 43 43 42 42 42 42 41 43 43 44 44 45 38 36 33 33 39 39 30 25 25 22 25 27 25 25 24 17 33 31 33 35 36 34 35 28 23 24 26 24 22 23 27
37 37 40 42 42 42 42 42 42 41 40 42 43 43 43 44 38 34 34 38 39 38 10 24 23 26 28 26 23 21 23 17 30 31 33 28 34 33 35 31 26 25 30 30 31 32 32
37 37 38 39 40 40 40 40 41 41 41 41 42 43 42 40 38 37 36 37 40 28 16 20 24 23 23 24 25 24 20 24 29 30 32 31 31 34 35 33 30 34 33 30 34 33 29
38 36 37 39 39 40 40 41 41 42 42 42 42 42 40 40 33 35 35 36 28 21 18 10 23 25 25 21 24 25 19 23 26 25 26 27 28 31 35 32 33 32 32 29 28 28 27
37 37 36 36 37 38 39 39 41 40 40 41 42 40 40 38 38 36 36 32 21 18 6 7 13 13 8 9 9 18 20 20 25 26 26 24 24 31 33 33 31 30 35 30 24 25 22
35 35 35 36 37 37 38 39 40 41 41 41 42 39 36 38 38 38 34 23 18 12 13 12 11 4 7 10 9 18 22 23 23 23 24 25 26 32 32 34 35 33 33 34 32 29 30
36 36 37 38 38 37 37 38 40 41 40 40 38 37 36 36 38 36 30 22 20 19 20 19 13 10 7 5 13 17 26 36 33 31 29 28 26 29 31 38 38 35 35 30 32 25 25
35 36 38 37 37 37 37 38 39 39 40 40 37 33 33 36 37 32 24 23 23 23 23 19 14 13 14 14 17 12 29 35 33 30 30 30 32 29 34 36 35 35 34 36 34 33 26
35 36 37 37 37 38 38 38 38 39 39 39 36 26 31 36 28 31 24 24 24 24 23 22 20 15 15 15 15 15 20 31 33 31 32 36 35 28 27 31 35 33 37 36 31 29 29
36 37 38 37 36 37 38 38 38 38 38 36 31 31 30 33 25 25 27 25 25 24 24 21 18 16 17 13 13 14 27 32 32 32 30 31 32 27 23 25 26 32 36 36 36 36 32
37 37 37 37 37 36 37 37 39 38 39 38 31 23 28 32 32 28 25 24 23 24 23 21 19 18 17 17 17 12 18 32 32 33 35 34 30 27 25 29 33 32 37 36 35 32 31
35 35 35 36 36 37 37 38 38 38 39 37 30 28 29 23 28 29 29 29 25 22 23 22 21 16 17 15 17 19 19 32 32 33 33 34 29 30 31 30 33 32 33 36 34 35 34
34 34 35 36 37 37 37 37 38 39 40 36 30 28 28 30 30 30 26 24 25 26 28 26 20 18 22 18 14 18 22 25 27 34 33 34 28 30 27 28 31 31 34 36 38 35 36
35 35 36 36 36 37 37 38 38 38 39 33 35 33 31 26 24 27 29 28 23 21 20 25 30 30 27 28 31 30 31 30 30 30 34 32 28 26 25 30 31 29 34 37 37 38 37
35 35 36 36 37 38 38 38 39 37 38 36 36 33 27 22 22 20 20 24 31 29 24 24 26 28 34 37 34 31 30 28 31 31 31 27 29 28 25 29 24 31 35 37 38 39 39
36 37 37 39 39 40 40 40 40 39 38 38 35 33 30 23 22 21 20 18 23 27 28 26 26 36 36 33 30 27 22 23 25 26 30 29 28 26 21 25 27 32 38 37 37 36 39
37 37 37 38 39 41 41 42 40 40 38 38 36 36 33 28 22 22 27 26 25 23 24 27 36 38 35 31 28 20 17 20 19 22 25 25 28 25 26 23 22 28 38 37 36 32 39
38 38 38 39 41 41 42 41 41 41 39 38 36 37 34 29 28 26 26 28 31 31 28 26 32 34 34 28 26 24 22 20 18 20 22 23 26 26 25 24 26 35 38 36 30 32 42
39 39 40 41 42 42 42 42 41 42 41 38 35 37 34 31 29 29 29 27 29 30 29 34 32 34 30 26 25 22 23 23 25 31 24 23 26 25 25 23 18 38 39 35 39 40 37
39 40 41 42 41 42 42 42 42 42 42 40 34 36 38 34 30 32 32 32 33 31 33 33 33 33 32 28 28 31 28 28 26 26 33 25 26 25 24 25 37 39 40 37 36 35 35
Wind_Speed
9 9 9 10 9 9 11 13 12 10 9 11 14 16 18 20 20 20 20 21 24 25 25 24 21 19 12 6 15 14 10 8 9 3 8 11 12 14 17 15 21 27 27 29 29 30 34
10 12 11 11 9 9 11 11 11 12 10 11 14 16 18 20 22 23 23 24 26 27 25 23 20 14 6 16 10 13 16 11 12 9 10 10 9 16 19 22 26 24 27 30 28 30 25
11 12 11 11 10 11 11 12 11 12 13 14 16 16 18 21 22 25 26 27 30 30 26 24 18 8 10 28 6 25 26 12 18 17 9 15 10 10 14 19 21 26 27 26 28 27 25
9 11 12 12 16 14 11 13 14 13 13 17 18 17 17 20 21 24 28 31 32 32 29 23 9 5 11 13 16 18 20 18 13 17 15 17 17 12 6 11 18 18 23 27 22 20 25
10 12 13 13 13 15 14 15 15 12 14 15 18 17 18 20 22 25 30 34 39 37 23 14 4 6 11 15 7 19 22 8 9 10 12 16 11 10 8 7 12 12 20 21 24 21 25
12 12 13 14 15 14 16 17 16 11 12 15 16 16 19 20 22 26 31 39 38 20 10 10 8 6 11 9 3 10 9 3 4 7 6 2 5 11 6 9 19 10 14 16 22 31 25
12 12 14 14 15 14 15 18 16 13 13 15 16 18 17 20 23 27 25 12 8 3 7 10 9 11 22 14 22 6 17 8 6 6 9 11 13 18 15 18 19 18 21 27 27 25 22
12 14 15 16 15 15 16 17 17 18 17 14 14 16 17 19 24 26 18 5 10 9 16 19 30 33 30 21 18 17 14 7 5 11 12 13 17 13 17 22 19 18 24 33 32 27 22
13 15 16 17 15 14 14 16 17 18 17 11 14 16 16 18 23 16 13 17 14 11 8 22 15 14 14 16 17 17 13 11 10 10 13 18 11 8 16 25 20 20 23 27 26 28 33
11 13 15 15 14 13 14 16 15 14 14 14 15 14 15 19 12 14 10 26 22 10 7 9 7 7 13 5 8 17 13 13 4 2 4 4 6 14 21 23 20 18 15 31 23 19 19
12 14 14 13 13 13 15 16 17 18 18 15 15 13 12 10 13 8 12 24 18 3 7 10 10 14 13 11 4 7 9 13 11 10 4 9 7 8 18 23 21 15 21 30 10 15 21
12 13 16 16 15 17 17 19 18 17 16 17 15 14 11 11 6 13 17 23 8 1 11 11 12 13 13 15 6 8 8 4 1 8 14 18 14 5 3 14 10 9 20 10 9 7 16
14 14 15 15 15 16 16 16 18 16 13 14 15 13 10 11 10 17 19 13 3 9 12 13 11 21 23 9 17 15 16 12 8 4 11 11 20 19 9 9 10 11 12 3 5 9 14
16 15 16 16 16 16 16 17 17 15 13 12 13 14 10 12 14 13 13 4 11 11 19 12 9 8 5 6 16 12 19 12 15 9 5 4 7 6 13 15 8 17 9 7 8 5 6
17 17 17 17 16 16 17 17 17 16 13 9 9 12 13 16 17 11 5 12 9 10 8 16 15 11 1 15 17 8 17 8 8 19 9 3 4 4 6 12 19 6 14 7 11 8 5
16 18 18 17 17 17 16 16 15 14 13 8 2 7 15 17 16 10 9 19 17 14 21 22 9 5 4 11 5 4 5 4 4 7 5 1 8 6 1 13 13 10 3 5 6 3 5
18 17 17 16 17 18 17 16 15 12 11 9 4 6 9 19 11 10 21 16 14 27 27 8 15 12 12 15 14 8 6 2 2 6 8 5 4 2 3 8 8 10 7 7 3 6 4
18 18 18 18 18 18 18 17 15 13 8 5 4 7 10 11 15 7 27 10 12 31 32 23 15 14 12 15 12 10 6 6 7 5 7 1 4 9 14 14 18 15 15 14 8 5 10
18 19 19 19 19 18 18 18 16 14 13 3 4 7 14 4 16 25 14 20 28 26 26 15 13 13 13 13 7 9 9 12 11 4 5 4 4 7 8 8 12 6 16 20 12 6 11
19 19 18 20 21 18 18 17 16 15 12 5 2 6 8 6 5 11 19 22 23 23 30 25 22 20 17 14 12 9 5 6 5 5 5 1 5 9 10 15 4 6 9 22 24 7 9
19 19 20 20 19 17 17 17 16 13 12 8 5 6 6 4 11 20 15 3 13 23 22 22 24 18 18 15 12 10 10 10 5 9 5 3 6 8 15 18 14 15 18 19 31 25 8
22 22 21 21 20 18 18 17 18 13 5 6 6 4 4 6 9 8 14 11 19 17 11 10 16 12 12 15 13 13 4 6 2 5 5 6 4 7 13 11 8 20 22 19 21 27 22
24 24 24 23 22 22 20 19 18 14 13 5 5 8 6 5 8 10 5 6 12 14 12 9 8 12 12 14 12 5 3 6 6 5 6 3 3 5 5 9 16 13 10 14 12 12 18
24 25 25 25 25 24 22 21 20 18 18 6 5 3 4 10 11 11 20 11 13 18 14 10 4 19 3 9 9 8 12 14 10 15 13 8 3 2 8 11 5 6 3 4 9 6 6
25 26 27 27 26 25 23 21 22 22 21 12 6 3 4 10 10 14 18 14 14 13 14 11 9 5 6 5 4 5 7 8 13 20 20 19 8 3 4 10 13 5 8 3 9 10 16
26 27 26 25 23 22 22 21 25 24 23 12 12 7 4 4 7 12 14 11 12 13 11 10 6 5 5 4 3 3 5 6 6 5 26 16 15 10 5 6 4 4 7 4 3 6 10
27 26 26 25 23 21 19 16 23 24 25 15 6 16 5 9 9 12 6 7 8 10 8 12 1 0 2 7 6 7 7 5 9 10 6 21 17 18 10 4 10 5 9 3 5 5 10
26 25 24 25 23 21 19 18 20 22 27 20 12 12 15 5 12 12 15 13 11 9 8 12 4 3 3 6 4 5 6 6 6 10 13 17 14 11 8 6 9 15 9 3 14 14 18
26 27 28 26 24 22 22 20 23 21 26 26 11 13 12 7 5 8 9 13 11 11 8 2 6 5 2 4 2 3 5 5 4 4 2 9 11 10 12 6 17 20 22 19 19 20 19
Wind_Direction
322 324 336 348 318 316 325 322 325 328 328 334 339 339 336 332 330 325 319 314 309 308 307 311 316 323 330 270 253 261 243 223 206 182 217 225 232 239 251 251 242 245 253 253 255 254 260
337 318 311 320 321 340 333 327 329 334 334 334 332 330 334 330 324 321 318 311 306 303 303 306 310 315 259 268 256 284 337 324 283 274 286 258 243 238 266 261 246 252 254 255 262 263 259
326 334 330 324 321 319 322 326 313 317 322 326 326 328 332 330 325 320 315 308 303 299 298 302 303 283 253 252 286 312 310 292 289 290 293 295 314 338 317 296 266 263 265 273 269 268 274
321 321 322 330 334 320 317 324 317 312 318 323 326 324 325 322 321 316 311 304 300 295 292 290 291 243 257 261 256 267 278 268 281 259 260 275 281 280 268 296 293 285 268 260 269 269 274
312 315 318 319 320 327 317 316 313 310 317 323 326 326 324 321 320 315 310 308 298 289 282 261 221 194 263 292 217 245 238 252 277 292 233 254 305 266 289 284 284 257 253 270 276 259 260
301 301 310 311 314 317 316 311 316 308 317 321 325 325 324 322 319 314 316 311 291 292 267 206 230 226 260 242 98 337 312 186 314 268 271 175 270 239 207 237 229 253 267 268 262 260 262
316 307 304 309 304 308 316 323 317 307 306 315 318 322 327 326 319 317 327 331 5 357 1 259 243 229 293 300 325 295 289 219 188 273 254 225 230 237 231 240 253 275 280 273 269 268 283
313 308 309 296 300 302 309 315 316 316 315 304 315 324 327 323 317 315 312 299 343 311 300 270 258 262 266 274 282 278 256 264 214 240 247 243 241 253 269 240 251 269 264 264 280 285 284
309 308 309 306 294 298 303 311 316 315 318 307 315 323 327 321 315 319 311 287 308 38 287 291 242 232 229 220 233 252 208 226 229 261 251 246 262 260 274 257 249 255 270 261 268 294 301
325 327 315 311 309 305 304 305 306 311 316 309 313 319 325 328 312 332 295 344 344 66 306 268 215 219 170 179 241 229 209 185 138 218 356 302 275 270 263 255 240 259 296 292 278 285 282
318 318 315 315 307 306 305 303 302 304 304 304 303 301 310 320 297 313 312 329 330 43 313 184 161 148 172 190 147 181 172 190 171 165 136 251 249 306 244 248 233 249 289 304 328 320 312
312 315 309 306 305 304 302 301 297 299 302 302 296 288 306 305 253 263 311 323 332 192 245 210 150 180 182 218 228 136 161 139 89 180 211 244 264 202 241 266 229 278 289 283 338 305 265
304 303 305 307 305 301 301 304 298 298 301 307 287 280 287 276 274 316 319 321 213 227 284 182 178 176 196 207 224 156 169 165 164 164 248 274 252 239 191 259 241 243 278 232 238 228 246
295 296 298 297 299 302 302 304 297 293 296 311 309 298 268 260 267 273 302 252 222 230 240 301 144 157 213 293 284 190 159 176 211 191 313 288 320 176 191 204 184 219 198 184 193 229 237
296 296 295 300 301 299 300 303 299 296 292 291 340 296 263 250 250 253 254 227 216 231 304 335 316 237 166 265 239 137 176 178 179 193 203 291 242 40 202 204 205 202 211 272 304 318 276
291 300 304 299 298 297 298 296 297 299 298 264 281 286 264 245 228 221 225 231 239 257 316 339 311 3 313 313 345 244 100 21 85 27 332 241 289 311 219 196 234 253 15 205 213 255 247
295 296 296 296 295 294 292 289 284 286 291 314 262 269 249 215 199 203 222 226 252 270 281 298 330 319 315 330 346 327 99 60 90 91 352 14 217 295 117 194 199 206 215 203 232 254 272
290 293 294 292 292 291 287 282 284 276 268 316 227 240 254 152 195 206 236 233 245 271 294 302 301 288 303 324 318 324 33 108 166 146 142 132 274 253 248 210 220 205 232 212 200 196 247
292 291 288 286 286 287 286 280 279 279 246 189 253 266 265 205 211 219 237 236 246 267 275 285 281 301 299 278 291 313 40 130 152 118 140 187 245 291 301 228 205 229 237 229 227 275 246
288 288 284 282 282 282 281 278 270 276 254 177 223 270 236 167 243 236 223 240 239 238 254 264 279 297 286 286 255 267 297 110 122 111 125 284 234 234 268 304 246 233 287 216 212 222 249
292 291 287 283 279 277 279 274 265 269 249 179 208 251 281 229 214 240 248 246 260 253 246 241 255 255 271 283 287 279 299 152 174 151 171 210 263 269 281 295 297 305 283 282 217 215 240
288 287 284 282 279 276 276 275 265 249 248 217 206 209 331 295 301 313 247 250 248 254 277 286 276 276 306 277 270 298 265 43 106 208 211 208 269 307 298 267 343 310 284 260 236 215 234
282 284 283 280 279 276 272 267 262 241 178 229 197 282 303 297 322 322 302 292 285 273 259 221 302 320 307 320 352 329 297 237 201 202 201 233 257 344 287 343 326 281 261 248 188 187 221
283 281 279 278 277 273 267 259 250 239 212 204 235 286 263 267 264 282 296 314 322 311 301 318 254 216 31 357 321 301 267 267 230 226 223 217 161 279 290 316 242 330 107 159 164 98 119
280 280 280 280 275 271 265 259 247 233 230 206 206 214 260 285 296 295 301 312 299 315 310 299 292 78 71 33 28 318 255 254 242 235 221 223 185 251 279 310 279 291 29 18 185 50 33
285 283 279 275 271 269 262 251 241 225 221 209 219 193 228 283 256 278 343 321 303 304 301 287 72 99 81 72 335 238 253 224 222 240 212 207 186 197 194 274 289 246 167 198 164 82 64
281 278 274 271 269 267 260 245 226 222 211 203 216 208 213 255 269 286 293 325 300 343 294 294 127 138 302 154 205 225 244 250 248 244 171 193 194 208 225 228 274 5 143 123 84 126 94
279 276 273 267 261 257 251 226 214 221 208 199 215 201 195 249 270 280 288 287 289 309 334 347 355 190 182 198 223 241 255 252 212 266 184 179 181 192 219 225 261 127 88 310 118 96 92
278 277 271 263 254 250 244 231 220 212 206 194 214 203 204 227 277 336 277 272 272 281 285 279 285 295 93 244 290 331 309 301 279 278 216 185 187 165 183 211 75 83 108 91 86 87 77